{"data":{"norad_id":60372,"epoch":"2026-09-21T20:06:56.491776Z","epoch_age_seconds":69939,"freshness":"FRESH","line1":"1 60372U 24138T   26264.83815384  .00000441  00000+0  24184-4 0  9997","line2":"2 60372  53.1610 117.4615 0001345  87.0869 273.0288 15.34386168120673","mean_motion":15.34386168,"eccentricity":0.0001345,"inclination_deg":53.161,"raan_deg":117.4615,"arg_perigee_deg":87.0869,"mean_anomaly_deg":273.0288,"bstar":2.4184e-5,"rev_number":12067,"period_min":93.848604088824,"perigee_km":461.82425359304,"apogee_km":463.66445067677,"semimajor_km":6840.8813521349,"source":"CELESTRAK","updated_at":"2026-09-22T09:00:49.227099Z"}}